STARLINK-2036, 47652

Orbit data source: Space-Track

STARLINK-2036, 47652 is a payload satellite owned by SpaceX/Seattle (US) in LEO that was launched on Tue, 16 Feb 2021 UTC via an FALCON 9 launch vehicle from the Air Force Eastern Test Range (AFETR). Payload-class satellites include a variety of spacecraft equipped with specific instruments for various scientific and technological missions. These include communications satellites like Starlink; space stations such as the ISS; scientific satellites like the Hubble; Earth observation satellites from companies like Planet Labs, Umbra, and HawkEye 360; GPS; miniature CubeSats for education and research; and military/defense satellites.

Loading next visibility...
Identifier
47652, 2021-012AJ
Orbit
LEO
Country
Flag of USUS
Related business
Manufacturer
SpaceX/Seattle
Mission
Operational Commercial Communications
Bus & Motor
STARLINK, Unknown motor
Mass
260 kg wet, ~248 kg dry
Launch date (UTC)
2021-02-16 (5 years ago)
Launch vehicle
FALCON 9
Launch site
Air Force Eastern Test Range (AFETR)
Object type
Payload
Rocket body
Debris
Shape & HBR
Box + 1 Pan, 4.4 m
Radar Cross Section
13.562 m², Large (>1 m²)

Expand to show TLE details & history
Last TLE update: 21 hours ago

TLE from 21 hours ago
0 STARLINK-2036
1 47652U 21012AJ  25241.21087988  .00001202  00000-0  99549-4 0  9992
2 47652  53.0548 215.6808 0001108  84.8384 275.2732 15.06410575250971
Epoch: 2025-08-29T05:03Z
TLE epoch observation values (Epoch: 2025-08-29T05:03:40.021Z)
Latitude
0.00002°
Longitude
162.10127°
Altitude
547.988 km
Speed
7.589 km/s
True Right ascension
14h 22m 43s
True Declination
0° 00' 00"
Sunlit
Object was in daylight at epoch
Visualization orbit readout
Latitude
Unknown
Longitude
Unknown
Altitude
Unknown
Speed
Unknown
Apparent Right ascension
Unknown
Apparent Declination
Unknown
Sunlit
N/A
Visualization observer readout
Local Sidereal Time
18:01:14
Azimuth
Unknown
Elevation
Unknown
Doppler factor
Unknown
Orbital elements
Apogee altitude
548.217 km
Perigee altitude
546.682 km
Semi-major axis
6,925.587 km
Eccentricity
0.00011
Inclination
53.0548°
RAAN
215.6808°
Arg. of periapsis
84.8384°
True anomaly
275.26056°
Mean anomaly
275.2732°
Eccentric anomaly
275.26688°
Mean motion
3.76581 °/min
Orbital period
95.6 mins
BSTAR
0.000099549
Loading maneuver chart data...
Computing Atmospheric mass density...

Documentation

Showing up to 5 results
|